Weather History for Florala, AL

Change the Weather History Date:

Wednesday, May 28, 2014

  Actual Average (KCEW) Record (KCEW)
Temperature  
Mean Temperature 79 °F -  
Max Temperature 88 °F 87 °F 98 °F (2000)
Min Temperature 70 °F 64 °F 54 °F (1979)
Cooling Degree Days 14    
Growing Degree Days 29 (Base 50)    
Moisture  
Dew Point 70 °F    
Average Humidity 78    
Maximum Humidity 97    
Minimum Humidity 44    
Precipitation  
Precipitation 0.02 in - - ()
Sea Level Pressure  
Sea Level Pressure 30.02 in    
Wind  
Wind Speed 5 mph (SSE)    
Max Wind Speed 17 mph    
Max Gust Speed 25 mph    
Visibility 9 miles    
Events      
Averages and records for this station are not official NWS values.
T = Trace of Precipitation, MM = Missing Value Source: NWS Daily Summary

Daily Weather History Graph

Daily Weather History Graph

Search for Another Location

Airport:

Trip Planner

Search our weather history database for the weather conditions in past years. The results will help you decide how hot, cold, wet, or windy it might be!

Date:

Astronomy

May. 28, 2014 Rise Set
Actual Time 5:43 AM CDT 7:41 PM CDT
Civil Twilight 5:16 AM CDT 8:09 PM CDT
Nautical Twilight 4:43 AM CDT 8:42 PM CDT
Astronomical Twilight 4:07 AM CDT 9:17 PM CDT
Moon 5:44 AM CDT (5/28) 7:43 PM CDT (5/28)
Length of Visible Light 14h 53m
Length of Day
13h 58m
Waning Crescent, 0% of the Moon is Illuminated
May 28
Waning Crescent
May 28
New
Jun 5
First Quarter
Jun 12
Full
Jun 19
Last Quarter

Hourly Weather History & Observations

Time (CDT) Temp. Heat Index Dew Point Humidity Pressure Visibility Wind Dir Wind Speed Gust Speed Precip Events Conditions
12:58 AM 71.1 °F - 68.0 °F 90% 30.04 in 6.0 mi Variable 3.5 mph - N/A   Clear
1:58 AM 70.0 °F - 68.0 °F 93% 30.03 in 5.0 mi SSE 3.5 mph - N/A   Clear
2:58 AM 70.0 °F - 69.1 °F 97% 30.01 in 4.0 mi South 4.6 mph - N/A   Clear
4:58 AM 72.0 °F - 70.0 °F 93% 30.01 in 6.0 mi Calm Calm - N/A   Clear
5:58 AM 72.0 °F - 69.1 °F 91% 30.03 in 5.0 mi SSE 3.5 mph - N/A   Clear
6:58 AM 72.0 °F - 70.0 °F 93% 30.03 in 4.0 mi Calm Calm - N/A   Clear
7:58 AM 73.0 °F - 71.1 °F 93% 30.05 in 5.0 mi Calm Calm - N/A   Clear
8:33 AM 77.0 °F - 73.4 °F 89% 30.06 in 9.0 mi SE 4.6 mph - N/A   Partly Cloudy
8:51 AM 78.8 °F - 73.4 °F 83% 30.06 in 10.0 mi SSE 8.1 mph - N/A   Mostly Cloudy
8:58 AM 79.0 °F - 73.0 °F 82% 30.05 in 10.0 mi SSE 8.1 mph - N/A   Mostly Cloudy
9:04 AM 78.8 °F - 73.4 °F 83% 30.06 in 10.0 mi SSE 6.9 mph - N/A   Scattered Clouds
9:58 AM 81.0 °F 85.2 °F 72.0 °F 74% 30.05 in 10.0 mi SE 8.1 mph - N/A   Scattered Clouds
10:58 AM 84.0 °F 87.8 °F 69.1 °F 61% 30.04 in 10.0 mi SSE 10.4 mph - N/A   Partly Cloudy
11:58 AM 86.0 °F 89.4 °F 68.0 °F 55% 30.03 in 10.0 mi South 8.1 mph - N/A   Mostly Cloudy
12:58 PM 87.1 °F 87.8 °F 63.0 °F 44% 30.01 in 10.0 mi SSE 12.7 mph 20.7 mph N/A   Partly Cloudy
1:58 PM 88.0 °F 89.6 °F 64.9 °F 46% 30.00 in 10.0 mi SSW 12.7 mph - N/A   Partly Cloudy
2:58 PM 88.0 °F 90.3 °F 66.0 °F 48% 29.98 in 10.0 mi SSW 17.3 mph 25.3 mph N/A   Scattered Clouds
3:58 PM 86.0 °F 89.4 °F 68.0 °F 55% 29.97 in 10.0 mi South 10.4 mph - N/A   Partly Cloudy
4:58 PM 82.9 °F 87.0 °F 70.0 °F 65% 29.97 in 10.0 mi SSW 5.8 mph - 0.02 in   Mostly Cloudy
5:58 PM 82.0 °F 85.5 °F 69.1 °F 65% 29.97 in 10.0 mi SSW 11.5 mph - 0.00 in   Scattered Clouds
7:58 PM 78.1 °F - 70.0 °F 76% 29.99 in 10.0 mi South 4.6 mph - N/A   Mostly Cloudy
8:58 PM 75.9 °F - 70.0 °F 82% 29.99 in 10.0 mi Calm Calm - N/A   Partly Cloudy
9:48 PM 75.2 °F - 71.6 °F 89% 30.02 in 10.0 mi Calm Calm - N/A   Mostly Cloudy
9:58 PM 75.0 °F - 71.1 °F 87% 30.01 in 10.0 mi Calm Calm - N/A   Mostly Cloudy
10:20 PM 75.2 °F - 71.6 °F 89% 30.03 in 10.0 mi Calm Calm - N/A   Mostly Cloudy
10:58 PM 73.0 °F - 70.0 °F 90% 30.01 in 10.0 mi North 3.5 mph - N/A   Clear
11:31 PM 73.4 °F - 69.8 °F 88% 30.02 in 10.0 mi Calm Calm - N/A   Mostly Cloudy
11:58 PM 73.0 °F - 69.1 °F 87% 30.00 in 10.0 mi Calm Calm - N/A   Overcast